Home   Weather   Bad Hersfeld   Past weeks

Flag for Germany Past Weather in Bad Hersfeld, Hesse, Germany — Yesterday and Last 2 Weeks

Now
73 °F

Rain. Partly sunny.


Feels Like: 76 °F
Forecast: 60 / 74 °F
Wind: 9 mph from Southwest

Location: Fritzlar Airport

Current Time: Aug 17, 2017 at 7:49:05 pm

Latest Report: Aug 17, 2017 at 6:35 pm


Visibility: N/A

Pressure: 30.01 "Hg

Humidity: 65%

Dew Point: 61 °F

Location of Bad HersfeldLocation

Past Weather in Bad Hersfeld — Graph

°F

Bad Hersfeld Temperature Yesterday

Maximum temperature yesterday: 77 °F (at 4:20 pm)
Minimum temperature yesterday: 61 °F (at 1:20 am)
Average temperature yesterday: 67 °F

High & Low Weather Summary for the Past Weeks

 TemperatureHumidityPressure
High81 °F (Aug 3, 3:20 pm)100% (Aug 3, 1:20 am)30.21 "Hg (Aug 3, 1:20 am)
Low46 °F (Aug 7, 5:20 am)34% (Aug 7, 3:20 pm)29.80 "Hg (Aug 8, 4:20 pm)
Average63 °F77%30.03 "Hg
* Reported Aug 2 6:20 pm — Aug 17 6:20 pm, Bad Hersfeld. Weather by CustomWeather, © 2017

Note: Actual official high and low records may vary slightly from our data, if they occured in-between our weather recording intervals... More about our weather records

Advertising

Bad Hersfeld Weather History for the Previous 24 Hours

Scroll right to see more
 ConditionsComfort  
Time TempWeatherWind HumidityBarometerVisibility
6:20 pm
Thu, Aug 17
73 °FLight rain. Partly sunny.10 mph65%30.01 "HgN/A
5:20 pm75 °FPartly sunny.7 mph61%29.98 "HgN/A
4:20 pm75 °FBroken clouds.14 mph61%30.01 "HgN/A
3:20 pm75 °FPartly sunny.12 mph65%30.01 "HgN/A
2:20 pm75 °FBroken clouds.12 mph61%30.01 "HgN/A
1:20 pm75 °FPartly sunny.12 mph61%30.04 "HgN/A
12:20 pm75 °FBroken clouds.9 mph61%30.04 "HgN/A
11:20 am73 °FBroken clouds.8 mph61%30.04 "HgN/A
10:20 am70 °FBroken clouds.7 mph78%30.07 "HgN/A
9:20 am66 °FPartly sunny.6 mph83%30.07 "HgN/A
8:20 am63 °FPartly sunny.1 mph88%30.07 "HgN/A
7:20 am57 °FScattered clouds.1 mph100%30.07 "HgN/A
6:20 am59 °FScattered clouds.1 mph94%30.07 "HgN/A
5:20 am59 °FPassing clouds.3 mph94%30.07 "HgN/A
4:20 am59 °FPartly cloudy.6 mph94%30.09 "HgN/A
3:20 am59 °FPartly cloudy.3 mph94%30.09 "HgN/A
2:20 am59 °FPassing clouds.2 mph94%30.09 "HgN/A
1:20 am61 °FPartly cloudy.2 mph88%30.12 "HgN/A
12:20 am61 °FPartly cloudy.2 mph88%30.12 "HgN/A
11:20 pm
Wed, Aug 16
63 °FPartly cloudy.3 mph88%30.15 "HgN/A
10:20 pm63 °FPartly cloudy.2 mph88%30.15 "HgN/A
9:20 pm66 °FPartly cloudy.1 mph83%30.15 "HgN/A
8:20 pm72 °FPartly sunny.2 mph61%30.12 "HgN/A
7:20 pm73 °FPartly sunny.2 mph53%30.12 "HgN/A
Weather by CustomWeather, © 2017

See weather overviewHow to use our weather pages